Location: Devore Heights
(34.2372°N, 117.4156°W)
Time: 18:57:06
(UTC+00:00)

S-56A Canister/Altair - Pass Details

Date: 19 September 2024
Orbit: 636 x 2487 km, 38.9° (Epoch: 14 October)

Event Time Altitude Azimuth Distance (km) Brightness Sun altitude
Rises 05:42:18 0° 290° (WNW) 3,756 11.7 -44.5°
Reaches altitude 10° 05:44:34 10° 289° (WNW) 2,991 11.0 -44.9°
Enters shadow 05:47:38 31° 287° (WNW) 2,072 9.9 -45.3°
Maximum altitude 05:52:05 81° 204° (SSW) 1,504 - -45.9°
Drops below altitude 10° 06:03:43 10° 119° (ESE) 4,472 - -47.5°
Sets 06:07:50 0° 118° (ESE) 5,705 - -48.0°
